Wind_Speed
16 20 20 19 20 19 18 20 15 30 26 28 22 21 17 15 15 13 7 5 3 5 8 9 15 20 21 22 26 30 31 31 30 30 29 26 24 21 19 16 13 11 9 6
12 19 18 16 18 20 19 18 15 16 21 21 17 11 11 13 10 7 11 3 5 7 12 13 16 18 22 25 27 30 31 31 30 28 26 24 23 20 17 14 12 9 7 4
5 9 17 6 6 6 9 12 7 9 10 11 10 7 9 10 11 13 16 10 10 11 13 15 18 21 23 27 31 31 32 30 28 25 25 22 21 18 15 12 10 7 5 2
6 11 3 8 4 4 8 10 9 14 14 12 12 7 7 9 12 7 12 12 12 12 14 19 23 22 25 29 30 31 29 27 24 24 23 20 18 15 12 10 8 5 3 0
3 6 14 8 2 5 2 3 8 11 9 10 6 5 2 11 8 10 11 12 12 18 22 24 23 26 26 29 29 28 25 23 22 22 22 18 16 13 10 8 6 3 0 2
3 4 3 2 4 2 3 2 10 9 11 11 10 1 3 7 9 14 14 16 18 22 25 25 22 23 26 25 25 23 22 22 20 20 19 17 14 11 8 6 3 0 3 4
8 5 8 9 3 4 4 5 6 5 9 10 6 5 5 9 10 14 15 19 23 23 23 24 25 26 25 24 22 23 23 22 20 19 19 15 12 9 7 4 1 2 4 6
4 5 8 1 2 5 4 2 2 2 4 6 6 8 9 10 12 12 13 17 20 21 21 22 22 24 24 23 23 24 25 24 21 19 14 11 10 7 4 2 2 4 5 7
7 6 7 1 7 8 5 6 3 4 3 7 6 4 7 8 12 10 11 15 18 20 21 19 19 22 25 21 26 28 26 23 18 15 12 9 7 5 2 2 4 5 7 8
3 5 9 7 7 1 3 5 3 3 5 7 7 9 10 10 10 10 15 17 20 21 20 20 20 23 28 27 26 26 22 17 14 12 9 7 5 3 1 2 4 5 8 10
11 16 9 6 5 4 3 3 5 2 4 9 11 9 9 8 9 10 14 17 17 18 19 20 24 24 25 26 24 21 17 15 12 9 7 5 3 1 1 2 3 6 7 10
5 6 4 5 4 4 4 4 4 7 9 9 11 12 12 10 12 15 15 18 20 21 23 22 23 24 23 19 18 18 15 12 9 7 4 3 1 2 4 5 8 8 7 8
7 3 3 3 6 7 7 7 7 9 10 12 12 12 12 12 15 18 19 20 20 22 25 25 23 22 17 16 15 13 13 11 8 5 3 2 3 4 6 7 10 9 6 9
4 3 2 5 3 8 10 10 10 10 14 12 15 17 17 15 18 17 18 21 24 26 25 24 22 19 15 14 15 14 12 9 7 4 3 3 3 5 6 8 10 10 9 11
6 5 2 9 10 9 10 11 10 10 12 12 15 16 17 13 14 19 22 23 25 26 23 22 21 17 14 13 13 11 9 7 5 4 3 3 4 5 7 9 10 12 13 13
3 4 7 9 9 8 7 10 10 10 11 12 13 17 19 21 21 22 22 21 22 19 19 20 18 15 13 12 11 10 8 7 5 3 2 4 5 6 8 9 10 12 13 14
6 4 5 4 8 10 6 8 9 9 10 12 16 21 22 23 23 21 20 21 22 21 19 18 16 14 12 10 9 7 6 4 3 3 3 4 5 7 8 9 11 12 13 14
5 2 8 8 11 11 9 8 11 13 11 18 20 21 20 18 15 20 21 22 22 20 16 15 14 13 11 9 7 6 4 3 2 2 4 5 6 7 8 9 11 13 14 15
1 5 6 11 13 12 11 12 14 17 19 20 20 17 19 20 20 21 21 19 18 17 12 13 14 11 9 8 6 5 3 2 2 3 4 6 7 8 9 10 11 13 14 14
2 3 7 9 15 14 12 17 20 19 18 20 23 22 19 19 20 21 18 15 12 15 14 15 10 9 7 6 5 3 2 2 3 4 5 7 8 9 10 11 12 13 13 13
4 6 8 9 9 15 17 20 22 20 20 20 21 19 20 20 19 20 18 14 12 14 14 12 8 7 5 4 3 2 2 3 4 6 7 8 10 10 11 11 12 12 13 14
4 6 8 11 11 13 17 20 22 23 22 21 22 23 21 19 17 15 12 17 15 14 12 9 7 6 4 3 2 2 3 5 5 6 8 9 10 11 12 13 13 14 14 15
5 7 10 12 12 15 19 19 20 22 22 22 22 22 19 17 16 16 11 12 16 12 10 8 8 6 4 2 1 3 4 5 6 7 9 10 11 12 13 14 15 15 16 16
7 10 12 16 19 18 13 17 18 19 21 20 20 22 23 20 13 9 16 16 15 13 10 9 7 4 2 1 3 4 5 6 8 10 10 11 12 13 13 14 15 16 17 17
8 11 13 15 12 10 20 22 23 22 22 20 20 18 17 15 11 17 19 17 15 12 10 8 5 2 1 3 4 6 7 8 9 11 12 12 13 14 15 15 16 17 19 19
9 8 11 11 13 17 19 21 18 20 22 19 16 17 17 16 21 20 19 17 14 11 8 5 2 1 2 4 5 7 8 10 11 12 12 14 15 16 16 16 17 18 19 20
9 11 13 13 13 17 18 20 21 18 19 21 19 17 19 21 19 19 17 15 12 9 6 3 0 2 4 6 7 9 10 12 12 13 15 15 15 15 15 16 18 20 21 21
Wind_Direction
257 271 273 271 267 261 245 247 252 280 284 284 296 293 287 288 280 276 300 311 235 159 161 140 134 133 136 140 137 134 132 128 122 123 125 127 127 128 128 126 126 127 126 122
283 263 251 257 270 277 278 272 270 268 278 279 276 296 327 309 274 283 301 224 177 157 135 132 131 134 141 138 131 130 123 118 120 122 125 125 125 125 124 123 122 123 122 120
265 298 305 282 258 285 269 273 259 271 279 317 316 324 273 274 276 256 230 161 166 154 139 137 133 143 142 131 123 117 114 117 121 125 122 124 122 122 122 122 124 121 119 104
294 307 263 18 173 279 272 282 326 256 280 298 300 324 25 337 291 107 127 146 144 144 130 127 131 132 129 122 117 115 114 117 122 123 120 122 120 120 121 122 123 126 123 13
277 309 286 290 314 310 352 280 11 350 335 321 343 39 70 353 42 104 127 124 130 125 118 118 121 128 121 111 109 110 114 119 124 125 122 123 120 122 123 122 119 112 213 290
339 311 286 55 32 158 174 279 12 2 343 355 333 220 38 28 78 95 103 113 113 111 108 111 117 117 109 107 112 119 126 123 125 121 120 122 124 122 117 115 119 54 299 294
236 258 272 274 346 164 325 319 356 14 329 1 51 46 83 80 66 95 106 112 116 116 119 130 138 132 125 124 120 122 121 119 116 120 122 120 119 114 113 112 73 300 299 306
184 222 262 105 240 314 349 317 333 304 325 55 78 83 77 80 90 91 104 120 119 118 123 129 129 123 117 114 119 118 120 119 119 118 116 116 114 116 109 77 312 315 323 325
208 221 277 243 283 303 304 291 284 274 163 126 115 96 106 104 111 100 82 84 90 108 106 103 108 117 109 116 125 126 123 117 113 112 110 113 117 115 109 5 340 332 329 320
266 266 258 296 297 7 328 322 357 261 215 163 141 145 130 123 118 122 127 128 132 126 116 109 109 113 119 128 131 125 114 114 114 114 116 109 104 88 35 339 333 328 327 327
255 270 280 94 38 30 59 22 47 58 169 161 136 130 129 126 119 118 122 126 127 118 111 108 114 114 124 130 126 115 116 116 115 116 111 105 94 38 350 353 335 329 326 320
294 22 328 32 38 34 62 76 80 110 114 123 138 135 135 128 128 127 124 118 109 112 112 111 115 117 120 121 122 119 117 119 118 118 115 104 34 344 325 321 325 315 302 309
288 29 58 80 69 64 87 81 89 106 113 119 116 123 125 123 124 125 121 117 118 117 115 116 113 109 113 117 121 121 120 123 123 117 104 67 24 3 333 323 316 302 286 313
236 184 190 196 112 106 102 94 81 98 102 108 115 118 119 117 120 118 114 116 116 115 111 112 109 106 112 117 122 121 122 116 112 99 81 46 12 338 323 320 323 325 320 320
229 203 35 116 121 118 123 119 110 111 110 110 112 117 118 114 113 114 115 115 111 107 107 110 107 107 115 119 118 114 111 104 98 86 60 24 338 322 320 323 322 321 325 328
125 145 142 147 141 131 137 119 125 126 125 127 119 119 117 113 110 108 108 112 110 111 114 113 110 115 120 120 113 105 100 102 87 70 23 346 332 327 327 326 323 324 327 329
142 156 136 141 161 147 142 129 130 132 133 126 122 121 118 114 108 106 102 102 105 109 114 117 117 121 120 115 109 101 95 82 88 37 1 333 324 326 324 323 323 322 319 320
236 222 176 165 163 148 143 141 134 136 132 129 125 121 120 116 114 113 112 112 107 104 109 117 123 123 116 109 102 100 99 84 47 354 329 331 328 322 321 321 319 316 317 320
209 176 197 161 161 152 143 141 137 132 136 132 130 125 118 116 118 120 123 118 117 116 121 128 123 116 114 115 100 97 92 69 357 335 331 322 321 322 319 317 315 315 318 321
75 130 150 144 149 148 144 139 133 136 138 132 122 119 117 121 125 124 123 112 119 128 136 129 122 117 114 112 104 94 66 18 340 327 325 325 322 321 319 316 315 315 318 321
100 129 137 138 138 139 142 142 138 135 133 133 128 127 127 129 129 127 121 113 124 131 137 129 128 123 124 109 85 55 17 343 335 330 326 324 322 320 317 316 316 317 318 319
127 137 138 136 134 131 137 138 134 134 134 129 127 129 129 128 126 114 116 131 140 138 139 136 133 137 133 111 73 14 349 344 334 326 321 320 318 317 316 317 316 314 314 314
136 139 144 143 139 133 131 132 137 138 135 137 137 136 133 133 131 123 122 141 148 145 136 133 144 137 120 89 21 354 345 334 327 321 316 315 313 313 311 310 310 311 311 312
142 146 138 132 131 130 129 131 127 125 124 127 130 132 134 126 107 127 140 142 143 138 134 141 138 133 105 25 360 345 333 326 322 318 317 314 308 307 306 306 307 310 307 309
124 126 135 144 145 133 129 127 119 119 117 117 118 125 131 136 139 140 138 138 138 138 135 134 141 119 35 357 342 333 326 320 317 317 314 312 309 306 306 307 310 309 308 306
154 154 153 151 139 141 140 139 133 136 133 127 123 136 143 138 133 136 141 148 150 143 145 152 160 347 345 338 329 324 319 317 317 317 314 314 311 310 311 314 315 315 314 315
113 127 123 122 134 144 147 141 137 142 140 137 128 135 136 138 139 146 148 149 150 151 154 161 239 331 330 328 324 320 318 316 315 317 317 313 311 312 313 316 316 316 318 319
Height
732 727 724 722 719 715 727 722 720 682 688 669 670 665 661 656 655 655 658 666 671 667 668 672 678 685 695 701 705 709 717 724 729 735 743 751 758 765 769 774 778 781 784 786
737 718 712 707 698 694 698 701 696 694 686 671 662 656 658 658 650 657 661 670 672 670 672 679 687 694 702 706 709 714 719 726 733 741 748 755 760 766 771 775 778 781 784 786
719 703 694 695 689 693 698 694 693 687 667 660 660 666 670 666 664 659 658 667 672 675 680 687 692 700 705 708 711 717 722 731 738 746 752 759 763 768 773 776 779 781 784 785
717 697 695 675 674 684 688 686 676 674 669 665 661 659 666 668 657 655 661 669 675 681 686 690 696 704 708 710 715 721 729 735 743 750 755 762 766 771 774 777 780 782 784 785
718 705 687 669 675 684 687 683 677 671 663 659 657 668 670 669 660 662 667 674 680 685 689 695 702 708 711 715 720 728 735 742 748 753 758 764 769 773 776 778 780 782 783 784
719 719 704 674 675 680 680 680 671 677 670 662 654 663 673 671 668 671 677 682 686 690 696 702 709 713 714 721 728 735 740 748 754 757 762 767 770 774 777 779 780 781 782 783
730 720 694 669 673 678 674 685 675 679 675 667 667 676 680 680 678 678 683 688 692 697 703 710 715 718 722 729 736 743 747 752 756 761 764 769 773 776 778 779 780 781 782 781
721 719 705 669 670 675 672 674 675 680 678 679 678 682 684 684 686 688 690 693 697 702 708 714 719 723 729 735 742 746 750 755 759 764 769 772 774 777 778 780 781 781 780 780
696 684 665 668 671 668 670 671 673 676 680 683 686 688 690 691 695 699 702 704 707 711 716 722 727 729 733 741 745 749 755 760 765 769 772 774 776 778 779 780 780 780 779 779
681 663 665 663 663 672 676 675 677 680 678 680 685 690 693 696 699 702 706 711 715 717 723 729 734 737 739 745 750 754 760 765 768 771 774 776 777 778 780 780 780 779 778 777
674 665 661 669 674 675 679 681 681 681 680 679 689 695 700 702 702 705 709 714 717 722 728 734 738 743 747 751 756 760 764 768 771 774 776 777 779 780 780 780 779 779 778 777
667 668 667 671 677 679 679 684 684 685 684 685 689 694 699 704 707 709 713 718 723 729 733 739 744 749 754 758 760 763 768 771 774 776 778 779 779 779 778 778 777 777 776 776
667 671 674 677 679 682 684 687 688 689 690 691 695 699 703 707 712 715 719 724 728 733 737 744 749 754 758 762 765 768 771 774 776 778 779 779 779 779 778 777 776 775 775 774
669 673 674 677 677 685 689 692 695 694 695 698 700 705 708 712 718 721 725 730 734 737 742 748 754 759 763 766 769 772 774 776 778 779 779 779 779 779 778 778 776 775 773 772
669 671 673 677 684 688 691 693 697 699 700 704 707 710 714 718 723 728 732 736 739 743 749 754 759 764 767 770 772 774 776 778 778 779 779 779 780 779 778 777 775 773 771 769
674 676 679 682 688 691 693 694 699 703 705 708 710 715 720 724 729 733 737 741 742 749 755 759 763 768 770 772 774 776 777 777 778 779 780 780 780 779 778 776 774 772 770 768
676 683 685 689 690 692 695 696 701 705 709 711 716 720 724 728 732 738 743 747 750 755 760 764 767 770 772 774 775 776 777 778 779 780 781 780 779 778 776 775 773 770 768 766
671 671 676 680 684 689 696 698 701 707 712 716 720 724 728 731 736 742 747 752 756 761 765 768 770 772 773 774 776 777 779 779 780 780 780 779 778 777 776 774 772 770 767 764
673 675 677 677 683 689 694 698 703 709 715 718 722 727 732 737 742 747 751 756 760 764 769 770 771 773 775 776 777 778 779 780 780 780 780 778 777 776 774 772 770 768 765 763
676 675 676 680 684 688 694 700 705 712 717 720 725 731 737 742 746 750 755 759 763 766 769 771 774 775 776 778 779 779 780 781 781 780 778 777 776 774 773 771 769 767 764 761
678 680 682 685 688 693 698 702 706 713 720 725 728 734 739 745 749 753 757 761 767 769 771 773 775 777 778 779 780 780 781 781 781 780 779 777 775 773 771 769 766 764 762 759
682 684 686 689 692 697 701 705 710 716 721 726 732 737 742 748 752 756 760 762 767 770 772 775 777 778 779 780 781 781 781 781 780 778 777 775 774 772 770 767 765 762 760 757
684 687 689 692 696 699 704 709 713 717 722 727 733 738 744 749 754 757 762 767 768 772 774 777 778 779 780 781 781 781 780 779 778 777 775 774 772 770 768 766 763 760 757 754
687 689 691 694 699 703 707 713 717 722 726 732 737 741 745 750 757 760 762 767 770 773 776 778 779 780 780 781 780 780 779 778 777 775 774 772 770 769 766 764 761 758 755 752
691 693 695 698 700 704 709 713 719 725 730 737 741 746 750 753 755 761 764 768 772 775 777 778 779 780 780 780 779 779 778 776 775 774 771 770 768 766 763 761 758 755 753 749
695 695 697 700 702 706 710 714 719 725 731 737 744 748 751 755 759 762 766 769 772 775 777 779 779 780 779 779 778 778 777 775 774 772 770 767 765 763 760 757 755 752 749 745
698 699 700 703 706 709 712 715 720 727 732 736 743 749 753 756 760 763 767 770 772 775 777 778 779 779 779 778 777 776 775 773 771 769 767 764 762 759 757 754 751 749 745 742